Theta_e
348 341 340 334 319 317 310 311 315 315 317 322 328 324 322 324 320 316 339 341 342 345 349 349 354 352 352 352 352 353 354 355 356 356 356 356 356 357 356 355 354 352 350 349 347 348 350 352 354
341 337 333 325 314 310 310 314 313 317 322 327 327 327 324 323 332 334 335 343 345 349 351 350 350 351 352 352 351 352 352 354 355 354 355 355 355 355 354 353 351 348 346 346 350 352 353 355 356
336 330 321 320 313 309 310 314 317 320 321 322 323 330 329 327 332 334 342 345 349 350 350 350 354 354 351 351 351 352 352 352 354 354 354 354 354 353 352 350 347 345 347 351 353 354 355 356 356
328 321 322 315 310 313 314 317 321 319 320 324 325 322 332 337 335 340 346 346 346 347 347 352 353 353 351 350 351 351 351 351 351 353 354 354 353 351 350 347 346 347 350 353 355 356 355 355 355
317 317 314 312 310 314 318 320 321 318 318 320 324 322 327 338 342 345 345 344 343 344 345 348 353 350 350 350 351 351 350 350 351 351 352 352 351 350 347 345 345 349 353 354 355 355 354 353 354
314 313 309 308 308 314 320 321 322 318 320 323 324 326 329 342 343 344 343 342 342 342 344 344 350 349 350 350 350 350 351 351 350 350 351 350 350 348 345 346 350 353 354 356 356 356 353 355 357
311 309 305 307 309 313 316 323 318 318 320 321 329 323 330 338 344 344 342 342 342 342 341 343 344 347 349 350 350 350 350 350 351 352 351 351 349 348 346 350 352 354 356 356 355 350 359 359 359
311 312 308 310 309 311 319 318 319 319 319 329 330 321 324 336 343 342 341 340 341 340 338 341 343 343 344 345 350 350 351 352 352 352 351 351 348 348 351 352 354 356 355 354 346 358 358 360 358
309 308 305 305 310 314 320 317 320 321 321 324 326 328 334 340 341 337 337 337 337 337 338 340 341 342 342 342 347 351 351 352 352 351 351 349 352 354 354 354 355 356 352 344 352 358 358 356 355
309 307 306 308 314 313 320 318 319 319 320 319 324 333 338 338 336 332 332 331 332 330 335 339 340 341 342 342 345 346 346 347 348 349 351 352 354 356 356 356 357 344 342 344 354 355 354 351 346
306 306 306 308 310 315 315 317 319 318 317 320 321 330 335 334 333 330 329 328 328 329 332 337 341 344 341 340 344 345 346 348 349 351 352 353 354 355 357 360 353 335 334 338 348 348 346 344 342
304 307 306 308 308 311 312 318 316 319 320 324 327 334 335 332 331 330 328 327 327 328 330 334 338 342 342 341 342 344 344 347 348 349 352 351 350 354 354 353 343 334 333 337 343 344 345 344 342
304 307 308 308 307 307 311 314 316 318 321 322 332 335 333 333 333 334 335 331 329 327 329 333 336 340 341 343 341 343 344 345 348 349 350 350 354 356 355 338 334 332 332 331 336 341 344 342 341
307 306 308 309 309 311 308 311 315 317 323 325 331 333 334 334 335 335 337 336 329 328 329 332 335 340 340 341 342 341 345 346 347 348 349 351 356 356 347 334 333 333 332 331 333 337 343 341 340
307 305 309 309 316 317 316 311 312 317 323 325 328 331 333 335 336 337 339 337 331 329 331 332 336 338 340 339 341 341 342 344 344 347 351 354 357 351 340 333 333 333 332 330 332 334 340 340 340
305 306 303 308 317 317 317 309 318 319 321 323 326 329 331 333 335 337 340 339 334 329 330 333 332 334 339 339 340 339 341 343 344 346 350 355 352 344 338 334 334 334 332 330 330 332 335 335 337
303 300 302 305 309 316 316 312 319 319 320 320 324 327 328 330 334 337 339 339 336 331 330 331 334 331 335 339 339 339 342 341 344 347 350 355 347 339 337 335 334 335 333 331 327 328 331 330 331
298 299 300 300 306 306 307 310 314 317 318 319 322 324 326 327 330 335 337 338 338 334 334 335 335 340 342 338 338 337 338 340 344 346 349 352 344 336 338 336 335 334 332 330 328 329 329 330 328
300 299 299 303 306 303 305 307 310 315 318 318 319 322 323 325 330 333 335 336 335 335 335 337 336 340 337 333 332 334 335 340 343 345 350 351 344 338 339 335 334 333 332 331 331 329 327 324 326
300 299 301 304 303 304 306 308 312 315 316 318 319 320 322 324 326 329 331 333 333 334 336 337 337 340 339 336 338 338 341 342 344 347 350 349 343 339 337 336 334 334 331 331 330 329 324 324 325
301 300 301 301 303 304 307 305 308 316 315 317 319 321 322 323 324 327 329 331 331 332 334 335 337 340 340 340 341 344 346 345 344 345 346 344 340 338 337 337 335 335 332 328 330 330 328 321 322
300 304 302 300 300 299 306 296 305 310 314 314 318 319 320 322 324 326 328 329 331 331 332 336 337 339 340 342 340 342 339 339 342 345 346 342 339 337 337 336 334 332 329 334 330 329 330 328 321
302 303 302 300 301 300 300 299 303 305 307 311 317 318 320 322 323 324 325 328 330 331 331 333 337 338 340 341 340 343 342 343 345 347 344 341 339 338 335 334 331 328 326 333 332 329 328 326 324
304 302 301 300 300 296 299 299 301 304 307 309 312 316 319 320 321 323 325 327 329 330 329 331 334 336 338 341 340 343 342 344 343 342 336 335 339 339 336 333 330 329 328 329 330 330 329 327 326
303 302 297 295 295 294 298 297 303 308 310 309 310 312 315 317 316 317 319 322 325 329 331 329 332 333 336 339 340 342 345 346 346 344 336 331 330 332 336 333 328 324 326 329 329 328 327 326 324
303 303 297 291 292 296 297 297 303 310 309 309 313 316 319 319 320 319 321 326 326 329 331 331 330 331 335 338 340 343 347 346 346 344 342 337 330 333 332 333 328 326 325 327 326 323 322 324 323
303 300 304 298 295 295 299 301 306 309 310 313 314 318 319 322 324 325 327 327 331 330 330 332 331 332 335 337 341 343 346 348 345 340 343 341 338 334 337 334 329 328 326 327 327 322 322 322 322
305 305 299 300 293 291 296 296 300 306 309 313 314 315 318 320 323 325 326 327 330 334 333 326 331 332 335 337 338 341 346 348 347 343 338 338 339 338 338 336 331 331 328 327 327 324 323 321 320
304 302 300 300 298 294 293 297 306 308 311 312 313 314 315 317 319 323 326 327 328 330 333 334 329 331 333 336 340 343 346 348 347 341 340 341 340 339 338 337 332 330 329 327 326 325 322 320 319
305 302 302 298 297 297 296 298 311 311 312 313 313 313 315 317 317 319 321 325 327 328 329 333 337 335 334 337 340 344 347 345 344 342 342 341 339 339 338 336 333 331 330 328 325 323 322 319 317
Wind_Speed
13 7 3 3 3 1 3 3 2 1 3 1 9 5 6 2 3 3 4 4 13 16 15 13 12 13 13 14 14 15 14 13 13 13 13 12 11 10 9 9 8 7 7 6 6 5 5 5 5
9 3 2 1 2 3 4 1 0 3 7 9 9 7 3 3 2 6 9 10 17 15 14 14 15 14 14 14 14 15 15 14 13 13 12 11 10 9 8 7 6 5 5 4 4 4 4 4 5
6 1 3 1 1 3 3 3 7 9 3 6 5 3 2 3 4 11 8 16 17 15 14 13 14 14 15 15 14 15 15 14 13 13 12 11 9 8 7 5 4 4 4 4 4 4 4 3 2
3 3 3 2 4 3 1 6 8 7 3 3 6 6 4 2 7 6 16 18 17 16 15 16 15 15 15 15 15 14 14 13 13 12 11 10 8 6 5 4 4 4 4 4 4 4 3 2 2
1 1 1 1 1 1 2 3 9 4 3 5 4 6 6 4 7 15 17 17 17 15 13 15 15 16 16 15 15 14 13 12 11 11 10 8 6 5 3 2 2 3 3 3 4 4 4 2 4
2 1 2 0 2 1 2 2 7 6 5 5 4 10 6 6 11 13 15 15 14 14 12 13 14 14 14 15 14 13 12 12 11 10 9 7 5 4 2 0 3 4 4 5 6 7 7 4 8
1 1 1 2 4 2 1 5 4 7 5 4 10 9 4 7 9 13 13 12 11 11 11 10 12 13 14 13 14 13 12 11 10 9 8 8 6 4 2 1 2 3 3 3 3 6 10 11 13
2 1 1 1 2 1 3 2 2 3 4 8 4 5 6 10 14 14 13 11 10 10 10 10 10 12 12 12 13 13 13 12 11 10 8 6 4 2 2 1 3 3 2 3 6 10 13 14 16
1 2 1 1 2 3 4 3 5 2 5 4 5 3 7 19 17 15 13 11 10 9 10 10 11 11 11 10 11 12 12 10 9 8 6 6 3 4 4 4 2 4 7 6 8 13 14 16 15
2 2 4 3 3 2 6 5 11 6 8 6 4 8 17 19 18 17 16 14 14 14 14 12 12 11 11 9 10 10 9 8 7 6 5 4 4 3 1 2 5 9 9 7 10 12 10 8 9
3 4 2 6 9 4 3 4 7 7 9 9 9 14 18 19 17 17 17 17 17 16 12 14 12 11 12 10 8 6 5 5 5 6 5 3 3 3 3 3 4 4 4 4 7 8 5 8 7
4 6 5 4 2 4 4 3 6 13 3 5 12 19 20 20 19 18 16 16 16 16 15 14 14 13 13 8 8 8 7 6 5 6 6 4 4 4 4 3 4 4 3 5 4 4 6 8 8
4 7 5 9 9 7 6 10 7 12 6 7 17 20 20 19 19 17 16 15 15 16 16 16 15 13 11 10 8 8 7 6 7 6 7 5 5 4 5 4 5 4 4 4 4 5 6 7 8
2 7 13 7 5 3 4 5 6 6 10 15 19 21 20 20 20 17 16 16 16 15 16 16 17 15 13 12 10 8 7 7 7 6 7 7 5 4 6 6 5 5 5 4 4 5 6 6 6
3 7 9 4 3 2 6 5 12 4 12 14 16 18 19 19 19 20 18 16 17 15 14 16 15 14 14 14 11 9 8 8 7 7 8 8 7 7 8 7 6 6 5 6 5 5 6 6 5
2 2 6 4 1 2 6 8 3 9 14 14 16 16 18 21 21 19 18 17 16 15 17 15 14 16 15 14 11 9 8 8 8 7 7 9 8 9 8 7 6 7 6 5 4 5 6 6 5
2 5 3 1 1 1 4 4 2 9 13 14 18 19 18 18 20 21 21 19 17 17 16 17 17 19 18 15 11 11 9 8 8 8 8 8 9 11 8 8 8 9 7 6 6 5 6 7 6
1 1 1 4 1 5 7 15 13 5 12 16 15 17 19 20 25 22 21 19 18 18 16 15 14 15 14 11 9 8 8 9 9 10 9 11 9 11 9 7 8 8 7 7 6 7 5 6 7
2 3 6 8 7 4 7 13 13 6 12 16 18 18 20 24 19 19 19 19 18 17 17 15 16 16 11 11 11 10 12 10 10 10 13 13 12 13 10 8 8 7 8 8 9 9 10 8 10
4 4 8 9 4 7 5 9 10 7 10 16 16 17 22 20 18 18 20 19 20 19 17 17 18 16 14 12 11 9 10 10 10 8 10 12 13 13 11 9 9 8 6 9 10 11 9 7 7
6 8 4 5 3 4 4 6 4 4 8 9 14 16 19 20 21 18 19 20 20 20 20 20 20 18 17 17 11 9 6 5 7 9 9 11 14 14 13 12 8 7 8 9 9 10 10 9 6
4 8 7 4 4 3 3 7 5 3 9 10 13 16 18 19 20 19 22 19 20 23 20 20 20 19 17 17 15 19 16 15 12 10 10 12 15 15 13 12 12 9 8 8 9 9 9 9 9
3 4 3 1 4 3 5 5 2 3 8 11 11 15 16 18 19 21 23 23 26 22 23 21 20 20 20 20 21 16 18 14 10 11 15 11 9 9 11 12 10 11 9 10 11 11 9 8 8
2 3 2 2 3 5 2 5 4 3 6 5 6 5 9 12 14 19 22 22 21 22 22 22 23 24 23 23 24 23 23 18 12 14 11 9 9 7 10 8 3 3 6 9 11 11 11 8 7
2 3 5 6 6 6 4 4 9 8 12 5 9 11 12 13 12 12 15 17 17 16 19 17 21 24 23 24 23 25 23 22 19 17 12 17 10 12 13 13 9 9 9 9 10 11 10 9 8
4 3 5 6 8 10 4 6 6 7 8 5 5 8 9 12 12 14 15 13 14 13 17 18 21 23 18 21 24 22 22 16 15 17 15 13 14 17 19 15 15 13 14 10 9 9 9 9 8
4 7 2 3 2 4 4 5 11 5 11 11 13 13 15 14 15 15 14 14 14 14 15 18 19 18 19 20 19 22 21 23 20 19 16 15 14 13 19 19 16 14 16 14 14 10 11 11 10
4 6 3 2 5 11 6 4 8 1 10 11 14 15 16 17 18 17 18 18 15 14 13 13 15 17 15 18 18 17 20 20 18 16 19 18 17 18 20 19 16 17 15 16 16 12 12 12 9
1 3 2 2 3 9 12 6 4 9 9 9 12 14 16 17 17 17 17 17 19 19 16 11 9 13 14 16 17 18 17 17 17 16 17 18 18 20 21 20 18 19 18 17 16 14 14 13 11
2 2 3 3 3 1 3 5 8 11 9 9 10 11 13 14 16 17 18 18 19 20 20 17 9 10 12 14 15 17 15 17 17 17 19 19 20 21 22 20 20 21 20 19 18 17 15 16 15
Wind_Direction
136 141 148 205 230 241 86 75 284 100 112 100 141 194 195 43 206 0 70 155 150 144 141 148 144 138 131 130 129 124 124 120 120 120 122 121 118 113 105 91 81 72 65 59 56 60 53 37 27
143 146 178 177 255 132 89 346 241 100 118 125 125 132 146 136 76 119 142 146 145 141 143 148 149 146 142 139 136 132 133 132 129 131 133 134 130 119 108 94 77 61 52 54 59 54 50 44 39
137 309 273 5 72 80 103 189 150 143 107 160 126 44 105 114 108 139 121 146 144 144 146 147 150 149 149 146 145 141 141 143 144 144 146 143 137 125 109 91 69 47 34 15 16 21 31 35 53
173 168 135 281 77 105 88 155 163 134 81 65 118 109 108 349 156 152 146 152 150 150 154 148 155 156 156 154 152 150 148 149 153 154 153 149 138 120 97 63 30 12 3 357 2 5 4 349 18
108 175 286 299 310 309 204 167 176 193 117 137 174 130 108 57 107 139 153 159 154 155 158 155 162 162 162 160 157 156 154 156 159 160 159 150 137 129 103 61 338 338 356 1 6 1 354 17 118
138 278 259 337 335 291 248 181 187 199 153 139 140 137 119 114 137 151 157 158 157 154 159 155 165 165 164 162 163 162 162 165 166 163 158 153 154 151 148 164 358 10 18 16 5 0 10 59 123
202 155 23 326 324 339 1 156 178 188 161 188 143 141 110 165 145 150 154 151 151 157 160 162 166 167 169 169 169 168 169 170 169 166 169 174 174 177 149 98 48 50 40 24 23 50 78 82 103
123 152 149 226 6 39 152 143 157 175 180 127 181 161 168 157 147 146 148 149 154 165 168 168 171 170 174 172 174 172 176 177 177 181 181 182 184 164 139 125 97 63 54 56 69 98 99 98 104
206 185 159 272 199 109 164 195 142 127 166 193 167 141 120 135 143 148 152 158 169 179 179 179 177 175 178 172 173 181 184 184 187 189 192 186 163 132 137 70 71 68 75 78 99 106 102 101 101
254 231 201 224 178 188 185 211 163 176 171 192 151 89 129 142 158 166 175 179 186 185 185 187 185 182 182 179 181 183 181 185 187 177 177 184 141 125 100 85 100 96 89 83 115 110 112 133 118
160 251 175 233 233 189 212 223 176 175 199 209 190 151 155 160 173 184 187 189 189 186 184 190 188 189 192 190 182 184 188 184 186 180 185 167 176 189 191 163 149 137 119 126 142 142 128 122 123
269 253 241 306 153 166 227 170 202 208 229 163 163 163 165 175 183 190 194 192 191 190 190 190 191 193 197 192 193 188 191 184 184 185 181 190 204 200 202 183 151 149 129 119 151 148 130 131 128
227 284 293 278 294 264 227 205 213 221 204 150 148 161 177 183 191 195 197 199 197 197 193 195 192 199 197 203 199 202 198 190 187 191 192 199 209 202 182 150 162 149 143 142 148 154 152 141 134
242 269 286 293 297 265 235 214 197 230 164 152 162 172 181 191 196 199 198 202 202 204 201 198 198 198 197 203 207 205 202 194 196 199 205 201 210 191 177 156 152 148 151 154 156 155 155 147 140
319 298 306 19 7 317 168 159 230 170 167 163 179 177 185 200 201 207 206 206 202 202 205 204 205 202 207 204 205 209 210 201 201 210 211 208 196 179 161 163 161 155 150 146 136 125 135 138 142
315 271 264 26 77 73 271 220 185 171 173 177 183 184 197 204 208 211 214 210 206 205 202 202 204 202 207 209 205 211 209 210 209 211 213 213 188 165 170 168 163 162 159 151 139 135 136 140 149
26 258 263 302 356 148 274 278 58 191 200 198 193 191 200 208 214 213 217 210 203 205 205 205 203 206 206 207 208 209 209 216 214 213 211 208 186 174 173 172 166 173 164 158 150 137 150 142 138
255 263 266 289 122 309 266 263 268 209 224 232 212 204 204 209 217 211 214 215 208 206 207 203 204 209 203 201 204 211 214 217 215 212 209 196 180 178 175 180 173 177 160 158 154 149 136 142 140
189 264 283 268 260 251 236 265 272 261 229 240 231 213 214 218 212 215 214 215 213 211 205 205 202 207 196 196 198 207 214 213 220 221 212 193 183 176 175 179 173 187 177 164 152 140 135 124 138
214 262 259 279 237 214 236 256 288 251 250 244 247 233 226 230 222 217 219 215 212 208 207 206 211 205 197 198 201 205 209 219 224 216 217 207 192 180 171 176 178 189 175 166 163 158 145 134 171
223 230 245 269 278 239 266 246 267 260 267 266 248 248 240 232 226 221 219 216 213 218 209 210 210 206 206 202 193 197 204 205 196 203 207 200 193 186 180 176 170 166 196 182 176 171 162 159 174
267 208 254 247 240 223 293 284 262 277 274 246 241 237 239 232 231 223 227 215 218 220 217 217 215 210 205 200 198 200 204 208 213 204 197 186 191 186 183 175 168 172 186 190 188 187 183 171 171
256 174 270 194 168 234 177 258 245 287 281 273 259 244 246 246 241 234 229 229 220 218 216 214 210 208 206 199 207 204 215 215 203 197 177 186 181 190 189 177 180 180 187 180 189 189 192 185 179
110 203 109 118 170 241 228 254 255 246 274 292 287 304 295 302 287 272 260 248 235 224 218 213 208 212 202 200 202 205 209 210 193 186 174 154 154 183 201 199 187 310 275 176 182 193 188 182 173
189 260 258 246 234 280 120 218 276 253 262 281 350 6 3 0 353 328 307 279 256 242 237 226 216 217 205 203 203 207 208 206 199 187 168 157 171 194 180 165 190 171 214 226 183 183 183 185 175
178 219 286 286 276 289 137 236 275 272 32 4 70 41 30 13 353 349 346 332 306 274 243 222 216 226 211 207 208 205 207 208 203 196 180 180 181 179 169 178 203 207 177 192 188 177 178 176 168
143 221 357 198 131 251 271 253 271 271 73 46 32 12 15 4 6 3 356 349 329 314 280 245 229 224 215 211 203 207 204 206 201 191 183 178 180 171 173 188 198 202 176 182 184 181 177 176 169
249 133 220 203 251 265 223 262 272 334 42 31 25 12 2 1 1 0 1 357 352 341 325 275 236 226 215 208 210 212 211 208 201 188 183 178 172 174 179 188 187 199 189 179 187 176 174 173 170
205 214 63 296 270 279 279 268 24 86 53 36 24 9 1 356 352 353 354 356 357 358 352 335 270 235 218 213 210 212 211 207 203 195 187 178 172 179 183 186 185 192 189 184 186 179 174 173 168
336 54 67 280 252 250 301 267 82 76 55 34 23 6 358 354 355 353 350 353 356 358 360 350 320 268 238 226 215 213 204 202 198 198 191 181 180 183 185 184 187 193 192 188 187 179 177 177 176